CZ-6A DEB, 60656

Orbit data source: Space-Track

CZ-6A DEB, 60656 is space debris in LEO originally from a launch on Tue, 06 Aug 2024 UTC launched from the Taiyaun Space Center, China (TSC). Debris objects in space refer to the collection of defunct objects orbiting the Earth. Examples of debris include non-operational satellites, rocket bodies, and fragments generated from explosions, collisions, or faulty payload assembly.

Loading next visibility...
Identifier
60656, 2024-140BH
Orbit
LEO
Country
Flag of CNCN / PRC
Related business
Manufacturer
SAST
Mission
Spacecraft
Bus & Motor
Unknown
Mass
Unknown
Launch date (UTC)
2024-08-06 (2 years ago)
Launch vehicle
Unknown
Launch site
Taiyaun Space Center, China (TSC)
Object type
Payload
Rocket body
Debris
Shape & HBR
Unknown shape, 0.2 m
Radar Cross Section
Small (<0.1 m²)

Expand to show TLE details & history
Last TLE update: 13 hours ago

TLE from 13 hours ago
0 CZ-6A DEB
1 60656U 24140BH  26129.91383615  .00017083  00000-0  91784-3 0  9991
2 60656  89.1431 283.5709 0109115 301.0206  58.0353 15.09730359 93899
Epoch: 2026-05-09T21:55Z
TLE epoch observation values (Epoch: 2026-05-09T21:55:55.443Z)
Latitude
-0.00003°
Longitude
86.86544°
Altitude
500.848 km
Speed
7.636 km/s
True Right ascension
18h 54m 17s
True Declination
0° 00' 00"
Sunlit
Object was in full shadow at epoch
Visualization orbit readout
Latitude
Unknown
Longitude
Unknown
Altitude
Unknown
Speed
Unknown
Apparent Right ascension
Unknown
Apparent Declination
Unknown
Sunlit
N/A
Visualization observer readout
Local Sidereal Time
18:59:21
Azimuth
Unknown
Elevation
Unknown
Doppler factor
Unknown
Orbital elements
Apogee altitude
609.266 km
Perigee altitude
458.426 km
Semi-major axis
6,911.983 km
Eccentricity
0.01091
Inclination
89.1431°
RAAN
283.5709°
Arg. of periapsis
301.0206°
True anomaly
59.10373°
Mean anomaly
58.0353°
Eccentric anomaly
58.56875°
Mean motion
3.77693 °/min
Orbital period
95.32 mins
BSTAR
0.00091784
Loading maneuver chart data...
Computing Atmospheric mass density...
Loading historical data...
Loading historical data...
Loading historical data...
Loading historical data...
Loading historical data...
Loading historical data...
Loading historical data...

Documentation

Showing up to 5 results
|